Location: Veytaux
(46.4185°N, 6.9320°E)
Time: 08:43:03
(UTC+00:00)

SL-16 R/B - Pass Details

Date: 27 May 2022
Orbit: 985 x 1006 km, 99.6° (Epoch: 01 July)

Event Time Altitude Azimuth Distance (km) Brightness Sun altitude
Exits shadow 01:45:54 17° 182° (S) 2,272 3.9 -15.6°
Maximum altitude 01:50:41 60° 258° (WSW) 1,134 2.6 -15.2°
Drops below altitude 10° 01:56:52 10° 338° (NNW) 2,784 5.3 -14.5°
Sets 01:59:25 0° 342° (NNW) 3,740 6.1 -14.3°
